Regional Weather Roundup
Issued by NWS

Home | Current Version | Previous Version | Text Only | Print | Product List | Glossary On
Versions: 1 2 3 4 5 6 7 8 9 10 11 12 13 14 15 16 17 18 19 20 21 22 23 24 25 26 27 28 29 30 31 32 33 34 35 36 37 38 39 40 41 42 43 44 45 46 47 48 49 50
000
ASUS43 KDTX 241810
RWRMI
MICHIGAN HOURLY REGIONAL WEATHER ROUNDUP
NATIONAL WEATHER SERVICE DETROIT/PONTIAC MI
200 PM EDT MON APR 24 2017

NOTE: "FAIR" INDICATES FEW OR NO CLOUDS BELOW 12,000 FEET WITH NO
SIGNIFICANT WEATHER AND/OR OBSTRUCTION TO VISIBILITY.

MIZ047>049-052>055-059>063-066>070-074>076-081>083-241900-
SOUTHEAST LOWER MICHIGAN

CITY           SKY/WX    TMP DP  RH WIND       PRES   REMARKS
ADRIAN         SUNNY     66  40  38 E12       30.01F
6HR MIN TEMP:  43; 6HR MAX TEMP:  66;

ALMA             N/A     65  39  37 E7        30.03F HAZE
ANN ARBOR      SUNNY     67  37  33 E9        30.01F
BAD AXE        SUNNY     63  42  46 SE7       30.07F
6HR MIN TEMP:  42; 6HR MAX TEMP:  63;

CARO           SUNNY     67  42  39 S8        30.03F
DETROIT        MOSUNNY   66  41  40 E12       30.02F
6HR MIN TEMP:  45; 6HR MAX TEMP:  67;

FLINT          SUNNY     69  36  29 E13G20    30.03F
6HR MIN TEMP:  41; 6HR MAX TEMP:  69;

GROSSE ILE     SUNNY     65  42  43 E12G17    30.01F
6HR MIN TEMP:  44; 6HR MAX TEMP:  65;

HILLSDALE      SUNNY     64  36  34 E13G18    30.00F
HOWELL         SUNNY     68  28  22 E9G16     30.02F
6HR MIN TEMP:  42; 6HR MAX TEMP:  68;


CITY           SKY/WX    TMP DP  RH WIND       PRES   REMARKS
JACKSON        SUNNY     68  31  25 E10       30.00F
6HR MIN TEMP:  44; 6HR MAX TEMP:  68;

LAMBERTVILLE   SUNNY     61  42  49 E13G21    30.01F
6HR MIN TEMP:  43; 6HR MAX TEMP:  62;

LANSING        SUNNY     71  36  27 E12G20    30.01F
6HR MIN TEMP:  41; 6HR MAX TEMP:  71;

LAPEER         HAZE      68  38  32 SE7       30.04F VSB 3/4
6HR MIN TEMP:  40; 6HR MAX TEMP:  68;

MASON          SUNNY     68  36  29 E14G20    30.01F
MONROE         SUNNY     65  42  42 E15G22    30.01F
6HR MIN TEMP:  44; 6HR MAX TEMP:  65;

MT. CLEMENS    MOSUNNY   66  42  42 E5        30.03F
6HR MIN TEMP:  42; 6HR MAX TEMP:  66;

PONTIAC        PTSUNNY   67  32  27 E15G22    30.02F
6HR MIN TEMP:  46; 6HR MAX TEMP:  67;

PORT HOPE        N/A     43  39  86 E10       30.08F
6HR MIN TEMP:  40; 6HR MAX TEMP:  44;

PORT HURON     SUNNY     68  39  34 NE9       30.04F
TRI CITIES     SUNNY     61  48  62 NE12      30.05F
6HR MIN TEMP:  43; 6HR MAX TEMP:  62;

MIDLAND        FAIR      61  42  50 NE3       30.04F
6HR MIN TEMP:  42; 6HR MAX TEMP:  61;

TROY           SUNNY     66  31  26 E13       30.05F
SAGINAW HB     SUNNY     64  45  48 N12       30.04F
$$
MIZ043>046-050>051-056>058-064>065-071>073-077>080-241900-
SOUTHWEST LOWER MICHIGAN

CITY           SKY/WX    TMP DP  RH WIND       PRES   REMARKS
BATTLE CREEK   SUNNY     69  29  22 E13G23    29.99F
6HR MIN TEMP:  46; 6HR MAX TEMP:  69;

BENTON HARBOR  SUNNY     72  31  22 E9        29.96F
6HR MIN TEMP:  39; 6HR MAX TEMP:  72;

BIG RAPIDS     SUNNY     66  32  28 SE10G21   30.00F
6HR MIN TEMP:  40; 6HR MAX TEMP:  66;

COLDWATER      SUNNY     68  29  24 E8G22     29.99F
6HR MIN TEMP:  44; 6HR MAX TEMP:  68;

FREMONT        FAIR      69  30  23 SE9       29.99F
HOLLAND        SUNNY     70  37  29 E12       29.98F
6HR MIN TEMP:  44; 6HR MAX TEMP:  70;

GRAND RAPIDS   PTSUNNY   69  38  32 SE14      29.99F
6HR MIN TEMP:  43; 6HR MAX TEMP:  69;

IONIA          FAIR      67  39  35 E9        30.00F
6HR MIN TEMP:  41; 6HR MAX TEMP:  67;

KALAMAZOO      SUNNY     71  23  16 E7G18     29.99F
6HR MIN TEMP:  44; 6HR MAX TEMP:  71;

LUDINGTON      SUNNY     65  37  35 SW8       29.98F
6HR MIN TEMP:  43; 6HR MAX TEMP:  66;

MARSHALL       SUNNY     69  30  23 SE13      29.99F
6HR MIN TEMP:  44; 6HR MAX TEMP:  69;

MOUNT PLEASANT SUNNY     65  35  32 SE7       30.02F
6HR MIN TEMP:  40; 6HR MAX TEMP:  65;

MUSKEGON       PTSUNNY   71  30  21 S14       29.98F
6HR MIN TEMP:  44; 6HR MAX TEMP:  72;

SOUTH HAVEN    SUNNY     70  30  22 SE13      29.97F
$$
MIZ016>042-241900-
NORTHERN LOWER MICHIGAN

CITY           SKY/WX    TMP DP  RH WIND       PRES   REMARKS
ALPENA         SUNNY     46  36  68 E13G21    30.13F
6HR MIN TEMP:  38; 6HR MAX TEMP:  47;

BEAVER ISLAND  CLOUDY    46  36  66 E15       30.06F
6HR MIN TEMP:  37; 6HR MAX TEMP:  47;

BELLAIRE       SUNNY     67  34  29 SE5       30.00F
6HR MIN TEMP:  36; 6HR MAX TEMP:  67;

CADILLAC       SUNNY     67  34  28 S7        30.00F
CHARLEVOIX     MOSUNNY   56  40  54 N8        30.05F
FRANKFORT      MOSUNNY   63  37  38 W5        30.00F
GAYLORD        SUNNY     66  35  31 S14       30.02F
6HR MIN TEMP:  35; 6HR MAX TEMP:  66;

GRAYLING       SUNNY     66  35  31 S10       30.03F
6HR MIN TEMP:  33; 6HR MAX TEMP:  67;

HARBOR SPRINGS SUNNY     59  39  47 E12       30.04F
HOUGHTON LAKE  SUNNY     65  37  35 S12       30.03F
6HR MIN TEMP:  37; 6HR MAX TEMP:  65;

MANISTEE       SUNNY     65  41  41 NW10      29.98F
OSCODA         SUNNY     48  36  64 NE9       30.11F
6HR MIN TEMP:  40; 6HR MAX TEMP:  48;

PELLSTON       SUNNY     54  35  48 NE12      30.07F
6HR MIN TEMP:  36; 6HR MAX TEMP:  55;

ROGERS CITY    SUNNY     44  34  69 E14G23    30.13F
TRAVERSE CITY  PTSUNNY   62  37  39 N9        29.98F
6HR MIN TEMP:  40; 6HR MAX TEMP:  68;

$$
MIZ007>008-015-241900-
EASTERN UPPER MICHIGAN

CITY           SKY/WX    TMP DP  RH WIND       PRES   REMARKS
KINROSS        SUNNY     45  28  51 E17G23    30.10F
6HR MIN TEMP:  35; 6HR MAX TEMP:  46;

MACKINAC ISLAN MOSUNNY   38  30  71 E20G29    30.10F WCI  29
6HR MIN TEMP:  35; 6HR MAX TEMP:  39;

NEWBERRY       SUNNY     50  33  52 SE9G18    30.05F
6HR MIN TEMP:  31; 6HR MAX TEMP:  51;

S. S. MARIE    MOSUNNY   47  28  47 E18G28    30.10F
6HR MIN TEMP:  36; 6HR MAX TEMP:  48;

MUNISING         N/A     54  33  45 S15G21    29.99F
6HR MIN TEMP:  33; 6HR MAX TEMP:  55;

$$
MIZ004>006-011>014-085-241900-
CENTRAL UPPER MICHIGAN

CITY           SKY/WX    TMP DP  RH WIND       PRES   REMARKS
MANISTIQUE     MOSUNNY   45  36  69 E16G22    30.04F
6HR MIN TEMP:  33; 6HR MAX TEMP:  45;

ESCANABA       MOSUNNY   46  35  65 SE14      30.02F
6HR MIN TEMP:  32; 6HR MAX TEMP:  46;

MENOMINEE      CLOUDY    48  36  63 E12       29.99F
6HR MIN TEMP:  37; 6HR MAX TEMP:  48;

SAWYER-GWINN   SUNNY     52  34  50 S12       29.97F
$$
MIZ001>003-009>011-084-241900-
WESTERN UPPER MICHIGAN

CITY           SKY/WX    TMP DP  RH WIND       PRES   REMARKS
IRON MOUNTAIN  MOSUNNY   57  33  40 S8        29.94F
6HR MIN TEMP:  30; 6HR MAX TEMP:  57; 6HR PCP: TRACE;

HOUGHTON       CLOUDY    40  31  70 E18G26    29.94F WCI  31
6HR MIN TEMP:  32; 6HR MAX TEMP:  40;

COPPER HARBOR    N/A     40  30  67 S12G24    29.99F WCI  33
6HR MIN TEMP:  34; 6HR MAX TEMP:  40;

IRONWOOD       CLOUDY    57  33  40 S10G17    29.83F
6HR MIN TEMP:  34; 6HR MAX TEMP:  57;

$$

ABBREVIATIONS USED IN REMARKS
   TC - TEMPERATURE IN CELSIUS
  WCI - WIND CHILL INDEX
   HX - HEAT INDEX
  VSB - VISIBILITY




USA.gov is the U.S. government's official web portal to all federal, state and local government web resources and services.